Simultaneous Nadir Overpasses (SNOs) Predictions

Prediction of SNOs between LANDSAT-8 and METOP-B Satellite Orbit:

Table of predicted SNOs for the next 14.0 days since TLE Epoch: 7/8/2023
Index Date (LANDSAT-8) Time (LANDSAT-8) Lat,Lon (LANDSAT-8) SZA (LANDSAT-8 ) Date (METOP-B) Time (METOP-B) Lat,Lon (METOP-B) SZA (METOP-B ) Distance(km) Time Diff (sec)
1 07/08/2023 12:52:24 -81.20,-151.91 119.12 07/08/2023 12:52:03 -81.21,-151.80 119.11 2.15 21
2 07/08/2023 13:41:49 81.23, 16.23 60.96 07/08/2023 13:42:42 81.22, 16.14 60.97 1.67 53
3 07/11/2023 08:26:40 -81.20, -85.43 118.78 07/11/2023 08:26:23 -81.20, -85.47 118.79 0.79 17
4 07/11/2023 09:16:05 81.23, 82.69 61.30 07/11/2023 09:17:01 81.23, 82.83 61.34 2.39 56
5 07/14/2023 04:00:55 -81.21, -18.75 118.36 07/14/2023 04:00:42 -81.21, -18.83 118.38 1.54 13
6 07/14/2023 04:50:21 81.22, 148.97 61.66 07/14/2023 04:51:21 81.23, 149.06 61.70 1.79 60
7 07/16/2023 23:35:10 -81.22, 47.76 117.92 07/16/2023 23:35:01 -81.21, 47.74 117.93 0.58 9
8 07/17/2023 00:24:35 81.22,-144.56 62.10 07/17/2023 00:25:39 81.23,-144.39 62.15 3.02 64
9 07/19/2023 19:09:24 -81.21, 114.09 117.45 07/19/2023 19:09:19 -81.22, 114.23 117.43 2.55 5



Historial Predications of SNOs between LANDSAT-8 and METOP-B
